Weather in Târgu Mureş

Romania     46°32′03″N   24°33′38″E
temp.,
°C
wind,
m/s
gust,
m/s
humid.,
%
clouds,
%
prec.,
mm/h
press.,
hPa
HPBL,
m
6 march, sat
sat623:00+4nw71179100 0.6 1017707
02:00+2nw61072100 0.7 1020654
05:000nw61170100 0.0 1022569
08:00−1nw71075100 0.1 1025544
11:00+2nnw565697 0.1 10271098
14:00+4nw664298 0.1 10271641
17:00+3nw563415 0.0 10291857
20:000nw49507 0.0 1031430
7 march, sun
sun723:00−2wnw35650 0.0 1033166
02:00−2wsw23630 0.0 103359
05:00−2sw12600 0.0 103123
08:00−2ssw12560 0.0 1030112
11:00+3w23370 0.0 10281204
14:00+5wnw34310 0.0 10251370
17:00+5wnw23320 0.0 10221145
20:00+1nnw11440 0.0 102322
8 march, mon
mon823:00−1nne11590 0.0 102221
02:00−1sw01620 0.0 102121
05:00−2sw11650 0.0 101921
08:00−1s11580 0.0 101958
11:00+3sw114389 0.0 1018701
14:00+5nw233794 0.0 10171545
17:00+5nw343878 0.0 10161515
20:00+2nnw235972 0.0 101939
9 march, tue
tue923:000nw227029 0.0 102033
02:00−1wnw127846 0.0 102126
05:00−2wnw018333 0.0 102121
08:000sse007716 0.0 102282
11:00+4ese005410 0.0 1021723
14:00+6ne014255 0.0 10201289
17:00+6ne114288 0.0 10191356
20:00+3ne225094 0.0 102127
10 march, wed
wed1023:00+2ene1255100 0.0 102226
02:00+1ne1169100 0.0 102137
05:00+1nnw2279100 0.0 102056
08:00+1nw3661100 0.0 1021315
11:00+4nw563483 0.0 10211022
14:00+6nw563391 0.0 10201589
17:00+5nw4639100 0.0 10201425
20:00+2nw246160 0.0 102389